Regional Weather Roundup
Issued by NWS

Home | Current Version | Previous Version | Text Only | Print | Product List | Glossary On
Versions: 1 2 3 4 5 6 7 8 9 10 11 12 13 14 15 16 17 18 19 20 21 22 23 24 25 26 27 28 29 30 31 32 33 34 35 36 37 38 39 40 41 42 43 44 45 46 47 48 49 50
000
ASHW40 PHFO 060910
RWRHI

WEATHER ROUNDUP FOR HAWAII
NATIONAL WEATHER SERVICE HONOLULU HI
1100 PM HST THU MAR 05 2015

THIS IS AN AUTOMATED REPORT THAT HAS NOT BEEN QUALITY CONTROLLED.

NOTE..."FAIR" INDICATES FEW OR NO CLOUDS BELOW 12,000 FEET WITH NO
SIGNIFICANT WEATHER AND/OR OBSTRUCTIONS TO VISIBILITY.

* - THESE SITES REPORT LIMITED FIELDS

HIZ001>004-061000-
KAUAI-NIIHAU-

CITY           SKY/WX    TMP DP  RH WIND       PRES   REMARKS
LIHUE APT      MOCLDY    70  57  63 N21       30.01S
PORT ALLEN*      N/A     68 N/A N/A NE5G12      N/A
POIPU*           N/A     68 N/A N/A N10G25      N/A
PRINCEVILLE*     N/A     66 N/A N/A MISG        N/A
KOKOLE POINT*  NOT AVBL
MOLOAA DAIRY*  NOT AVBL
WAIMEA HTS*    NOT AVBL
PUU OPAE*      NOT AVBL
PUU LUA*       NOT AVBL
MAKAHA RIDGE*  NOT AVBL
$$

HIZ005>011-061000-
OAHU-

CITY           SKY/WX    TMP DP  RH WIND       PRES   REMARKS
HONOLULU       PTCLDY    67  60  78 N12       29.96S
KALAELOA       CLOUDY    68  59  73 N9G22     29.96S
KANEOHE MCB    CLOUDY    70  60  70 N21       29.96S
WHEELER FIELD  FAIR      64  59  85 N10       29.97S
BELLOWS*       NOT AVBL
KAHUKU*        NOT AVBL
WHEELER*       NOT AVBL
WAIANAE HARBOR NOT AVBL
DILLINGHAM*      N/A     70  59  68 MISG        N/A
KAHUKU TRN*      N/A     66  57  72 NE9G18      N/A
KAWAILOA*        N/A     61  59  94 N8G17       N/A
KII*             N/A     70  59  68 N16G31      N/A
MAKUA RANGE*     N/A     70  57  64 E16G30      N/A
OAHU FOREST NW NOT AVBL
SCHOFIELD BRK*   N/A     63  57  82 CALM        N/A
SCHOFIELD S*   NOT AVBL
WAIANAE VLY*   NOT AVBL
KUAOKALA*      NOT AVBL
HONOULIUULI*   NOT AVBL
MOKUOLOE IS*   NOT AVBL
PALEHUA*       NOT AVBL
WAIAWA PHB*    NOT AVBL
$$

HIZ012>013-061000-
MOLOKAI-

CITY           SKY/WX    TMP DP  RH WIND       PRES   REMARKS
MOLOKAI AIRPT  CLOUDY    66  62  87 N15G25    29.95S
KALAUPAPA      NOT AVBL
MAKAPULAPAI*   NOT AVBL
MOLOKAI 1*     NOT AVBL
PUU ALII*      NOT AVBL
$$

HIZ016-061000-
KAHOOLAWE-

CITY           SKY/WX    TMP DP  RH WIND       PRES   REMARKS
KAHOOLAWE*     NOT AVBL
HAKIOAWA*      NOT AVBL
HONOKANAIA*      N/A     68  62  80 VRB15G35  29.93R
KANELOA*         N/A     70  64  83 MISG      29.13R
KEALIALALO*    NOT AVBL
LUA MAKIKA*    NOT AVBL
$$

HIZ014>015-061000-
LANAI-

CITY           SKY/WX    TMP DP  RH WIND       PRES   REMARKS
LANAI CITY     FAIR      64  64 100 NE26      29.95F
LANAI 1*       NOT AVBL
$$

HIZ017>028-061000-
MAUI-

CITY           SKY/WX    TMP DP  RH WIND       PRES   REMARKS
KAHULUI        CLOUDY    67  63  87 NE7       29.95F
KAPALUA-W MAUI NOT AVBL
HANA AIRPORT   MOCLDY    66  64  94 W3        29.97S
HANA*          NOT AVBL
HALEAKALA SUMM   N/A     34  34 100 N3G21       N/A
MAALAEA BAY*   NOT AVBL
HALEAKALA*     NOT AVBL
KAUPO GAP*     NOT AVBL
KULA 1*          N/A     48  45  87 E3          N/A
$$

HIZ023>026-061000-
BIG ISLAND OF HAWAII COAST AND LOWER SLOPES-

CITY           SKY/WX    TMP DP  RH WIND       PRES   REMARKS
KAILUA KONA    CLOUDY    72  63  73 NE3       29.88R
HILO           LGT RAIN  69  66  90 W5        29.91F
HONOKAA*       NOT AVBL
KAWAIHAE MWT*  NOT AVBL
KAWAIHAE*        N/A     75 N/A N/A SE2         N/A
SOUTH POINT*   NOT AVBL
UPOLU AIRPORT* NOT AVBL
KAMUELA*       PTSUNNY   61  59  94 N15       29.97S
HAKALAU*         N/A     48  48 100 N3          N/A
KALOKO-HONOKO* NOT AVBL
PALI 2*          N/A     63  55  77 N12G18      N/A
KEALAKOMO*       N/A    N/A N/A N/A N17G38      N/A
KAUPULEHU*     NOT AVBL
KAPAPALA*        N/A     62  59  90 CALM        N/A
LOWER KAHUKU*  NOT AVBL
PUHE CS*       NOT AVBL
PUHO CS*       NOT AVBL
PTA KEAMUKU*     N/A     57  54  88 CALM        N/A
WAIKOLOA*      NOT AVBL
$$

HIZ027>028-061000-
BIG ISLAND OF HAWAII INTERIOR AND SUMMMITS-

CITY           SKY/WX    TMP DP  RH WIND       PRES   REMARKS
BRADSHAW FIELD MOCLDY    48  46  91 SE2       30.16S
MK VISITOR CEN NOT AVBL
MAUNA KEA*       N/A     27 -13  17 NW48        N/A  WCI   7
MAUNA LOA*       N/A     37   1  22 MISG        N/A
MAUNA LOA 1*   NOT AVBL
PTA KIPUKA*      N/A     50  50 100 S3          N/A
PTA RANGE 17*    N/A     52  50  93 E5          N/A
PTA WEST*        N/A     54  50  87 SE9         N/A
NENE CABIN*    NOT AVBL
AHUMOA*        NOT AVBL
PTA PORTABLE*  NOT AVBL
PUU MALI*      NOT AVBL
$$

HIC003-061000-
NORTHWEST ISLANDS-

CITY           SKY/WX    TMP DP  RH WIND       PRES   REMARKS
MIDWAY ISLAND  MOCLDY    57  57 100 E21G26    30.38R
MIDWAY NOS*    NOT AVBL
FRENCH FRIGATE NOT AVBL
$$

PHZ110>124-180-061000-
BUOY REPORTS

STATION/POSITION TIME  TEMP    WIND        PRES    WAVE   SWELL
                       AIR SEA DIR/SP/G            HT/PER HT/DIR
                 (UTC) (F)     (DEG/KT/KT) (MB)    (FT/S) (FT/D)
BUOY 51001       NOT AVBL
BUOY 51101       0900   66 72   20/ 23/ 29 1019.0F  10/ 8   5/ 40
BUOY 51100       NOT AVBL
BUOY 51003       0800   75 78   40/ 19/ 23 1013.5R   9/ 9   7
BUOY 51004       0801   76 78   50/ 14/ 16 1010.8F   7/ 9   7/ 90
BARBERS PT BUOY  NOT AVBL
WAIMEA BAY BUOY  0900      76                N/A     9/10   3/340
KAILUA BAY BUOY  0900      76                N/A     8/10   3/ 10
LANAI BUOY       0900      76                N/A     4/14   2/200
BARBERS PT 2     0900      77                N/A     3/13   2/200
PAUWELA MAUI     0900      75                N/A     8/ 9
HILO             0900      77                N/A     8/ 9   3/340
KANEOHE BAY BUOY 0900      76                N/A    10/ 9   3
HANALEI KAUAI    NOT AVBL
KAHULUI HARBOR   0900   69 75              1013.9S
HONOLULU HARBOR  0900   70 76              1013.9R
KILO NALU        NOT AVBL
HILO HARBOR      0900   69 74              1012.6F
MOKUOLOE         0900   71 75   20/ 16/ 19 1015.1F
NAWILIWILI       0900   67 78              1015.9F
WHOTS BUOY       NOT AVBL
BUOY 51028       NOT AVBL
$$

......................KEY........................................
  SKY/WX - SKY CONDITIONS/PRESENT WEATHER
  TMP    - TEMPERATURE IN FAHRENHEIT
  DWPT   - DEWPOINT IN FAHRENHEIT
  RH     - RELATIVE HUMIDITY IN PERCENT
  WIND   - DIRECTION AND SPEED /MPH FOR ISLANDS...KTS FOR BUOYS/
  PRES   - MEAN SEA LEVEL PRESSURE IN INCHES OF HG
  VSB    - VISIBILITY IN MILES
  HX     - HEAT INDEX
  WCI    - WIND CHILL INDEX
  VRB    - VARIABLE WIND DIRECTION
  N/A    - NOT AVAILABLE


USA.gov is the U.S. government's official web portal to all federal, state and local government web resources and services.